owner,sensor,date,latitude,longitude,relative_humidity,qcFlag 
COMPS,ioos:station:USF.COMPS:C10:1,2013-12-03T16:05:00Z,27.1690,-82.9260,83.23,1111122 
COMPS,ioos:station:USF.COMPS:C10:1,2013-12-03T16:35:00Z,27.1690,-82.9260,83.68,1111122 
COMPS,ioos:station:USF.COMPS:C10:1,2013-12-03T17:05:00Z,27.1690,-82.9260,83.76,1111122 
COMPS,ioos:station:USF.COMPS:C10:1,2013-12-03T17:35:00Z,27.1690,-82.9260,83.21,1111122 
COMPS,ioos:station:USF.COMPS:C10:1,2013-12-03T18:05:00Z,27.1690,-82.9260,83.87,1111122 
COMPS,ioos:station:USF.COMPS:C10:1,2013-12-03T18:35:00Z,27.1690,-82.9260,83.28,1111122 
COMPS,ioos:station:USF.COMPS:C10:1,2013-12-03T19:05:00Z,27.1690,-82.9260,84.07,1111122 
COMPS,ioos:station:USF.COMPS:C10:1,2013-12-03T19:35:00Z,27.1690,-82.9260,86.08,1111122 
COMPS,ioos:station:USF.COMPS:C10:1,2013-12-03T20:05:00Z,27.1690,-82.9260,87.23,1111122 
COMPS,ioos:station:USF.COMPS:C10:1,2013-12-03T20:35:00Z,27.1690,-82.9260,87.61,1111122 
COMPS,ioos:station:USF.COMPS:C10:1,2013-12-03T21:05:00Z,27.1690,-82.9260,87.48,1111122 
COMPS,ioos:station:USF.COMPS:C10:1,2013-12-03T21:35:00Z,27.1690,-82.9260,88.12,1111122 
COMPS,ioos:station:USF.COMPS:C10:1,2013-12-03T22:05:00Z,27.1690,-82.9260,88.83,1111122 
COMPS,ioos:station:USF.COMPS:C10:1,2013-12-03T22:35:00Z,27.1690,-82.9260,89.02,1111122 
COMPS,ioos:station:USF.COMPS:C10:1,2013-12-03T23:05:00Z,27.1690,-82.9260,90.23,1111122 
COMPS,ioos:station:USF.COMPS:C10:1,2013-12-03T23:35:00Z,27.1690,-82.9260,89.19,1111122 
COMPS,ioos:station:USF.COMPS:C10:1,2013-12-04T00:05:00Z,27.1690,-82.9260,89.81,1111122 
COMPS,ioos:station:USF.COMPS:C10:1,2013-12-04T00:35:00Z,27.1690,-82.9260,89.38,1111122 
COMPS,ioos:station:USF.COMPS:C10:1,2013-12-04T01:05:00Z,27.1690,-82.9260,89.8,1111122 
COMPS,ioos:station:USF.COMPS:C10:1,2013-12-04T01:35:00Z,27.1690,-82.9260,89.71,1111122 
COMPS,ioos:station:USF.COMPS:C10:1,2013-12-04T02:05:00Z,27.1690,-82.9260,89.39,1111122 
COMPS,ioos:station:USF.COMPS:C10:1,2013-12-04T02:35:00Z,27.1690,-82.9260,89.76,1111122 
COMPS,ioos:station:USF.COMPS:C10:1,2013-12-04T03:05:00Z,27.1690,-82.9260,89.49,1111122 
COMPS,ioos:station:USF.COMPS:C10:1,2013-12-04T03:35:00Z,27.1690,-82.9260,89.38,1111122 
COMPS,ioos:station:USF.COMPS:C10:1,2013-12-04T04:05:00Z,27.1690,-82.9260,88.61,1111122 
COMPS,ioos:station:USF.COMPS:C10:1,2013-12-04T04:35:00Z,27.1690,-82.9260,88.76,1111122 
COMPS,ioos:station:USF.COMPS:C10:1,2013-12-04T05:05:00Z,27.1690,-82.9260,89.44,1111122 
COMPS,ioos:station:USF.COMPS:C10:1,2013-12-04T05:35:00Z,27.1690,-82.9260,89.64,1111122 
COMPS,ioos:station:USF.COMPS:C10:1,2013-12-04T06:05:00Z,27.1690,-82.9260,89.95,1111122 
COMPS,ioos:station:USF.COMPS:C10:1,2013-12-04T06:35:00Z,27.1690,-82.9260,90.13,1111122 
COMPS,ioos:station:USF.COMPS:C10:1,2013-12-04T07:05:00Z,27.1690,-82.9260,90.4,1111122 
COMPS,ioos:station:USF.COMPS:C10:1,2013-12-04T07:35:00Z,27.1690,-82.9260,90.59,1111122 
COMPS,ioos:station:USF.COMPS:C10:1,2013-12-04T08:05:00Z,27.1690,-82.9260,91.13,1111122 
COMPS,ioos:station:USF.COMPS:C10:1,2013-12-04T08:35:00Z,27.1690,-82.9260,91.61,1111122 
COMPS,ioos:station:USF.COMPS:C10:1,2013-12-04T09:05:00Z,27.1690,-82.9260,91.89,1111122 
COMPS,ioos:station:USF.COMPS:C10:1,2013-12-04T09:35:00Z,27.1690,-82.9260,92.07,1111122 
COMPS,ioos:station:USF.COMPS:C10:1,2013-12-04T10:05:00Z,27.1690,-82.9260,91.98,1111122 
COMPS,ioos:station:USF.COMPS:C10:1,2013-12-04T10:35:00Z,27.1690,-82.9260,91.85,1111122 
COMPS,ioos:station:USF.COMPS:C10:1,2013-12-04T11:05:00Z,27.1690,-82.9260,92.14,1111122 
COMPS,ioos:station:USF.COMPS:C10:1,2013-12-04T11:35:00Z,27.1690,-82.9260,92.44,1111122 
COMPS,ioos:station:USF.COMPS:C10:1,2013-12-04T12:05:00Z,27.1690,-82.9260,92.42,1111122 
COMPS,ioos:station:USF.COMPS:C10:1,2013-12-04T12:35:00Z,27.1690,-82.9260,91.82,1111122 
COMPS,ioos:station:USF.COMPS:C10:1,2013-12-04T13:05:00Z,27.1690,-82.9260,90.5,1111122 
COMPS,ioos:station:USF.COMPS:C10:1,2013-12-04T13:35:00Z,27.1690,-82.9260,91.07,1111122 
COMPS,ioos:station:USF.COMPS:C10:1,2013-12-05T17:05:00Z,27.1690,-82.9260,86.39,1111122 
COMPS,ioos:station:USF.COMPS:C10:1,2013-12-05T17:35:00Z,27.1690,-82.9260,85.84,1111122 
COMPS,ioos:station:USF.COMPS:C10:1,2013-12-05T18:05:00Z,27.1690,-82.9260,86.14,1111122 
COMPS,ioos:station:USF.COMPS:C10:1,2013-12-05T18:35:00Z,27.1690,-82.9260,86.34,1111122 
COMPS,ioos:station:USF.COMPS:C10:1,2013-12-05T19:05:00Z,27.1690,-82.9260,86.48,1111122 
COMPS,ioos:station:USF.COMPS:C10:1,2013-12-05T19:35:00Z,27.1690,-82.9260,86.74,1111122 
COMPS,ioos:station:USF.COMPS:C10:1,2013-12-05T20:05:00Z,27.1690,-82.9260,86.12,1111122 
COMPS,ioos:station:USF.COMPS:C10:1,2013-12-05T20:35:00Z,27.1690,-82.9260,83.9,1111122 
COMPS,ioos:station:USF.COMPS:C10:1,2013-12-05T21:05:00Z,27.1690,-82.9260,84.13,1111122 
COMPS,ioos:station:USF.COMPS:C10:1,2013-12-05T21:35:00Z,27.1690,-82.9260,84.26,1111122 
COMPS,ioos:station:USF.COMPS:C10:1,2013-12-05T22:05:00Z,27.1690,-82.9260,86.25,1111122 
COMPS,ioos:station:USF.COMPS:C10:1,2013-12-05T22:35:00Z,27.1690,-82.9260,87.48,1111122 
COMPS,ioos:station:USF.COMPS:C10:1,2013-12-05T23:05:00Z,27.1690,-82.9260,88.08,1111122 
COMPS,ioos:station:USF.COMPS:C10:1,2013-12-05T23:35:00Z,27.1690,-82.9260,88.52,1111122 
COMPS,ioos:station:USF.COMPS:C10:1,2013-12-12T17:05:00Z,27.1690,-82.9260,85.35,1111122 
COMPS,ioos:station:USF.COMPS:C10:1,2013-12-12T17:35:00Z,27.1690,-82.9260,88.15,1111122 
COMPS,ioos:station:USF.COMPS:C10:1,2013-12-12T18:05:00Z,27.1690,-82.9260,86.82,1111122 
COMPS,ioos:station:USF.COMPS:C10:1,2013-12-12T18:35:00Z,27.1690,-82.9260,86.78,1111122 
COMPS,ioos:station:USF.COMPS:C10:1,2013-12-12T19:05:00Z,27.1690,-82.9260,84.95,1111122 
COMPS,ioos:station:USF.COMPS:C10:1,2013-12-12T19:35:00Z,27.1690,-82.9260,80.62,1111122 
COMPS,ioos:station:USF.COMPS:C10:1,2013-12-12T20:05:00Z,27.1690,-82.9260,76.5,1111122 
COMPS,ioos:station:USF.COMPS:C10:1,2013-12-12T20:35:00Z,27.1690,-82.9260,74.26,1111122 
COMPS,ioos:station:USF.COMPS:C10:1,2013-12-12T21:05:00Z,27.1690,-82.9260,67.51,1111122 
COMPS,ioos:station:USF.COMPS:C10:1,2013-12-12T21:35:00Z,27.1690,-82.9260,54.13,1111122 
COMPS,ioos:station:USF.COMPS:C10:1,2013-12-12T22:05:00Z,27.1690,-82.9260,48.41,1111122 
COMPS,ioos:station:USF.COMPS:C10:1,2013-12-12T22:35:00Z,27.1690,-82.9260,50.33,1111122 
COMPS,ioos:station:USF.COMPS:C10:1,2013-12-12T23:05:00Z,27.1690,-82.9260,49.73,1111122 
COMPS,ioos:station:USF.COMPS:C10:1,2013-12-12T23:35:00Z,27.1690,-82.9260,50.89,1111122 
COMPS,ioos:station:USF.COMPS:C10:1,2013-12-13T00:05:00Z,27.1690,-82.9260,49.63,1111122 
COMPS,ioos:station:USF.COMPS:C10:1,2013-12-13T00:35:00Z,27.1690,-82.9260,47.29,1111122 
COMPS,ioos:station:USF.COMPS:C10:1,2013-12-13T01:05:00Z,27.1690,-82.9260,45.5,1111122 
COMPS,ioos:station:USF.COMPS:C10:1,2013-12-13T01:35:00Z,27.1690,-82.9260,45.35,1111122 
COMPS,ioos:station:USF.COMPS:C10:1,2013-12-13T02:05:00Z,27.1690,-82.9260,44.35,1111122 
COMPS,ioos:station:USF.COMPS:C10:1,2013-12-13T02:35:00Z,27.1690,-82.9260,48.87,1111122 
COMPS,ioos:station:USF.COMPS:C10:1,2013-12-13T04:05:00Z,27.1690,-82.9260,45.16,1111122 
COMPS,ioos:station:USF.COMPS:C10:1,2013-12-13T04:35:00Z,27.1690,-82.9260,46.5,1111122 
COMPS,ioos:station:USF.COMPS:C10:1,2013-12-13T05:05:00Z,27.1690,-82.9260,47.45,1111122 
COMPS,ioos:station:USF.COMPS:C10:1,2013-12-13T05:35:00Z,27.1690,-82.9260,50.51,1111122 
COMPS,ioos:station:USF.COMPS:C10:1,2013-12-13T06:05:00Z,27.1690,-82.9260,45.98,1111122 
COMPS,ioos:station:USF.COMPS:C10:1,2013-12-13T06:35:00Z,27.1690,-82.9260,51.34,1111122 
COMPS,ioos:station:USF.COMPS:C10:1,2013-12-13T07:05:00Z,27.1690,-82.9260,48.89,1111122 
COMPS,ioos:station:USF.COMPS:C10:1,2013-12-13T07:35:00Z,27.1690,-82.9260,62.46,1111122 
COMPS,ioos:station:USF.COMPS:C10:1,2013-12-13T08:05:00Z,27.1690,-82.9260,67.56,1111122 
COMPS,ioos:station:USF.COMPS:C10:1,2013-12-13T08:35:00Z,27.1690,-82.9260,70.85,1111122 
COMPS,ioos:station:USF.COMPS:C10:1,2013-12-13T09:05:00Z,27.1690,-82.9260,72.5,1111122 
COMPS,ioos:station:USF.COMPS:C10:1,2013-12-13T09:35:00Z,27.1690,-82.9260,74.35,1111122 
COMPS,ioos:station:USF.COMPS:C10:1,2013-12-13T10:05:00Z,27.1690,-82.9260,74.18,1111122 
COMPS,ioos:station:USF.COMPS:C10:1,2013-12-13T10:35:00Z,27.1690,-82.9260,74.6,1111122 
COMPS,ioos:station:USF.COMPS:C10:1,2013-12-13T11:05:00Z,27.1690,-82.9260,74.49,1111122 
COMPS,ioos:station:USF.COMPS:C10:1,2013-12-13T11:35:00Z,27.1690,-82.9260,74.58,1111122 
COMPS,ioos:station:USF.COMPS:C10:1,2013-12-13T12:05:00Z,27.1690,-82.9260,74.12,1111122 
COMPS,ioos:station:USF.COMPS:C10:1,2013-12-13T12:35:00Z,27.1690,-82.9260,75.08,1111122 
COMPS,ioos:station:USF.COMPS:C10:1,2013-12-13T13:05:00Z,27.1690,-82.9260,74.56,1111122 
COMPS,ioos:station:USF.COMPS:C10:1,2013-12-13T13:35:00Z,27.1690,-82.9260,75.2,1111122 
COMPS,ioos:station:USF.COMPS:C10:1,2013-12-13T14:05:00Z,27.1690,-82.9260,76.0,1111122 
COMPS,ioos:station:USF.COMPS:C10:1,2013-12-13T14:35:00Z,27.1690,-82.9260,75.44,1111122 
COMPS,ioos:station:USF.COMPS:C10:1,2013-12-13T15:05:00Z,27.1690,-82.9260,76.08,1111122 
COMPS,ioos:station:USF.COMPS:C10:1,2013-12-13T15:35:00Z,27.1690,-82.9260,74.65,1111122 
COMPS,ioos:station:USF.COMPS:C10:1,2013-12-13T16:05:00Z,27.1690,-82.9260,73.0,1111122 
COMPS,ioos:station:USF.COMPS:C10:1,2013-12-13T16:35:00Z,27.1690,-82.9260,71.7,1111122 
COMPS,ioos:station:USF.COMPS:C10:1,2013-12-13T17:05:00Z,27.1690,-82.9260,69.17,1111122 
COMPS,ioos:station:USF.COMPS:C10:1,2013-12-13T17:35:00Z,27.1690,-82.9260,67.64,1111122 
COMPS,ioos:station:USF.COMPS:C10:1,2013-12-13T18:05:00Z,27.1690,-82.9260,67.09,1111122 
COMPS,ioos:station:USF.COMPS:C10:1,2013-12-13T18:35:00Z,27.1690,-82.9260,64.5,1111122 
COMPS,ioos:station:USF.COMPS:C10:1,2013-12-13T19:05:00Z,27.1690,-82.9260,64.44,1111122 
COMPS,ioos:station:USF.COMPS:C10:1,2013-12-13T19:35:00Z,27.1690,-82.9260,63.3,1111122 
COMPS,ioos:station:USF.COMPS:C10:1,2013-12-13T20:05:00Z,27.1690,-82.9260,63.15,1111122 
COMPS,ioos:station:USF.COMPS:C10:1,2013-12-13T20:35:00Z,27.1690,-82.9260,64.42,1111122 
COMPS,ioos:station:USF.COMPS:C10:1,2013-12-13T21:05:00Z,27.1690,-82.9260,64.12,1111122 
COMPS,ioos:station:USF.COMPS:C10:1,2013-12-13T21:35:00Z,27.1690,-82.9260,65.86,1111122 
COMPS,ioos:station:USF.COMPS:C10:1,2013-12-13T22:05:00Z,27.1690,-82.9260,69.75,1111122 
COMPS,ioos:station:USF.COMPS:C10:1,2013-12-13T22:35:00Z,27.1690,-82.9260,71.59,1111122 
COMPS,ioos:station:USF.COMPS:C10:1,2013-12-13T23:05:00Z,27.1690,-82.9260,72.72,1111122 
COMPS,ioos:station:USF.COMPS:C10:1,2013-12-13T23:35:00Z,27.1690,-82.9260,70.99,1111122 
COMPS,ioos:station:USF.COMPS:C10:1,2013-12-14T00:05:00Z,27.1690,-82.9260,69.97,1111122 
COMPS,ioos:station:USF.COMPS:C10:1,2013-12-14T00:35:00Z,27.1690,-82.9260,69.82,1111122 
COMPS,ioos:station:USF.COMPS:C10:1,2013-12-14T01:05:00Z,27.1690,-82.9260,68.25,1111122 
COMPS,ioos:station:USF.COMPS:C10:1,2013-12-14T01:35:00Z,27.1690,-82.9260,69.24,1111122 
COMPS,ioos:station:USF.COMPS:C10:1,2013-12-14T02:05:00Z,27.1690,-82.9260,71.02,1111122 
COMPS,ioos:station:USF.COMPS:C10:1,2013-12-14T02:35:00Z,27.1690,-82.9260,72.24,1111122 
COMPS,ioos:station:USF.COMPS:C10:1,2013-12-14T03:05:00Z,27.1690,-82.9260,73.44,1111122 
COMPS,ioos:station:USF.COMPS:C10:1,2013-12-14T03:35:00Z,27.1690,-82.9260,74.76,1111122 
COMPS,ioos:station:USF.COMPS:C10:1,2013-12-14T04:05:00Z,27.1690,-82.9260,76.85,1111122 
COMPS,ioos:station:USF.COMPS:C10:1,2013-12-14T04:35:00Z,27.1690,-82.9260,77.65,1111122 
COMPS,ioos:station:USF.COMPS:C10:1,2013-12-14T05:05:00Z,27.1690,-82.9260,78.24,1111122 
COMPS,ioos:station:USF.COMPS:C10:1,2013-12-14T05:35:00Z,27.1690,-82.9260,79.41,1111122 
COMPS,ioos:station:USF.COMPS:C10:1,2013-12-14T06:05:00Z,27.1690,-82.9260,79.99,1111122 
COMPS,ioos:station:USF.COMPS:C10:1,2013-12-14T06:35:00Z,27.1690,-82.9260,80.14,1111122 
COMPS,ioos:station:USF.COMPS:C10:1,2013-12-14T07:05:00Z,27.1690,-82.9260,81.08,1111122 
COMPS,ioos:station:USF.COMPS:C10:1,2013-12-14T07:35:00Z,27.1690,-82.9260,81.83,1111122 
COMPS,ioos:station:USF.COMPS:C10:1,2013-12-14T08:05:00Z,27.1690,-82.9260,82.3,1111122 
COMPS,ioos:station:USF.COMPS:C10:1,2013-12-14T08:35:00Z,27.1690,-82.9260,82.74,1111122 
COMPS,ioos:station:USF.COMPS:C10:1,2013-12-14T10:05:00Z,27.1690,-82.9260,85.52,1111122 
COMPS,ioos:station:USF.COMPS:C10:1,2013-12-14T10:35:00Z,27.1690,-82.9260,86.24,1111122 
COMPS,ioos:station:USF.COMPS:C10:1,2013-12-14T11:05:00Z,27.1690,-82.9260,86.14,1111122 
COMPS,ioos:station:USF.COMPS:C10:1,2013-12-14T11:35:00Z,27.1690,-82.9260,86.48,1111122 
COMPS,ioos:station:USF.COMPS:C10:1,2013-12-14T13:05:00Z,27.1690,-82.9260,86.96,1111122 
COMPS,ioos:station:USF.COMPS:C10:1,2013-12-14T13:35:00Z,27.1690,-82.9260,86.78,1111122 
COMPS,ioos:station:USF.COMPS:C10:1,2013-12-14T14:05:00Z,27.1690,-82.9260,87.18,1111122 
COMPS,ioos:station:USF.COMPS:C10:1,2013-12-14T14:35:00Z,27.1690,-82.9260,87.55,1111122 
COMPS,ioos:station:USF.COMPS:C10:1,2013-12-14T15:05:00Z,27.1690,-82.9260,87.6,1111122 
COMPS,ioos:station:USF.COMPS:C10:1,2013-12-14T15:35:00Z,27.1690,-82.9260,87.84,1111122 
COMPS,ioos:station:USF.COMPS:C10:1,2013-12-18T18:05:00Z,27.1690,-82.9260,55.77,1111122 
COMPS,ioos:station:USF.COMPS:C10:1,2013-12-18T18:35:00Z,27.1690,-82.9260,53.13,1111122 
COMPS,ioos:station:USF.COMPS:C10:1,2013-12-18T19:05:00Z,27.1690,-82.9260,51.06,1111122 
COMPS,ioos:station:USF.COMPS:C10:1,2013-12-18T19:35:00Z,27.1690,-82.9260,50.81,1111122 
COMPS,ioos:station:USF.COMPS:C10:1,2013-12-18T20:05:00Z,27.1690,-82.9260,51.06,1111122 
COMPS,ioos:station:USF.COMPS:C10:1,2013-12-18T20:35:00Z,27.1690,-82.9260,53.38,1111122 
COMPS,ioos:station:USF.COMPS:C10:1,2013-12-18T21:05:00Z,27.1690,-82.9260,58.2,1111122 
COMPS,ioos:station:USF.COMPS:C10:1,2013-12-18T21:35:00Z,27.1690,-82.9260,60.8,1111122 
COMPS,ioos:station:USF.COMPS:C10:1,2013-12-18T22:05:00Z,27.1690,-82.9260,59.31,1111122 
COMPS,ioos:station:USF.COMPS:C10:1,2013-12-18T22:35:00Z,27.1690,-82.9260,59.51,1111122 
COMPS,ioos:station:USF.COMPS:C10:1,2013-12-18T23:05:00Z,27.1690,-82.9260,63.29,1111122 
COMPS,ioos:station:USF.COMPS:C10:1,2013-12-18T23:35:00Z,27.1690,-82.9260,65.3,1111122 
COMPS,ioos:station:USF.COMPS:C10:1,2013-12-19T00:05:00Z,27.1690,-82.9260,63.49,1111122 
COMPS,ioos:station:USF.COMPS:C10:1,2013-12-19T00:35:00Z,27.1690,-82.9260,62.54,1111122 
COMPS,ioos:station:USF.COMPS:C10:1,2013-12-19T01:05:00Z,27.1690,-82.9260,60.59,1111122 
COMPS,ioos:station:USF.COMPS:C10:1,2013-12-19T01:35:00Z,27.1690,-82.9260,60.04,1111122 
COMPS,ioos:station:USF.COMPS:C10:1,2013-12-19T02:05:00Z,27.1690,-82.9260,58.76,1111122 
COMPS,ioos:station:USF.COMPS:C10:1,2013-12-19T02:35:00Z,27.1690,-82.9260,55.32,1111122 
COMPS,ioos:station:USF.COMPS:C10:1,2013-12-19T03:05:00Z,27.1690,-82.9260,53.34,1111122 
COMPS,ioos:station:USF.COMPS:C10:1,2013-12-19T03:35:00Z,27.1690,-82.9260,54.91,1111122 
COMPS,ioos:station:USF.COMPS:C10:1,2013-12-19T04:05:00Z,27.1690,-82.9260,57.57,1111122 
COMPS,ioos:station:USF.COMPS:C10:1,2013-12-19T04:35:00Z,27.1690,-82.9260,56.98,1111122 
COMPS,ioos:station:USF.COMPS:C10:1,2013-12-19T05:05:00Z,27.1690,-82.9260,55.93,1111122 
COMPS,ioos:station:USF.COMPS:C10:1,2013-12-19T05:35:00Z,27.1690,-82.9260,56.68,1111122 
COMPS,ioos:station:USF.COMPS:C10:1,2013-12-19T06:05:00Z,27.1690,-82.9260,59.23,1111122 
COMPS,ioos:station:USF.COMPS:C10:1,2013-12-19T06:35:00Z,27.1690,-82.9260,63.47,1111122 
COMPS,ioos:station:USF.COMPS:C10:1,2013-12-19T07:05:00Z,27.1690,-82.9260,68.02,1111122 
COMPS,ioos:station:USF.COMPS:C10:1,2013-12-19T07:35:00Z,27.1690,-82.9260,72.79,1111122 
COMPS,ioos:station:USF.COMPS:C10:1,2013-12-19T08:05:00Z,27.1690,-82.9260,70.74,1111122 
COMPS,ioos:station:USF.COMPS:C10:1,2013-12-19T08:35:00Z,27.1690,-82.9260,70.58,1111122 
COMPS,ioos:station:USF.COMPS:C10:1,2013-12-19T09:05:00Z,27.1690,-82.9260,70.22,1111122 
COMPS,ioos:station:USF.COMPS:C10:1,2013-12-19T09:35:00Z,27.1690,-82.9260,70.02,1111122 
COMPS,ioos:station:USF.COMPS:C10:1,2013-12-19T10:05:00Z,27.1690,-82.9260,70.85,1111122 
COMPS,ioos:station:USF.COMPS:C10:1,2013-12-19T10:35:00Z,27.1690,-82.9260,67.57,1111122 
COMPS,ioos:station:USF.COMPS:C10:1,2013-12-19T11:05:00Z,27.1690,-82.9260,67.51,1111122 
COMPS,ioos:station:USF.COMPS:C10:1,2013-12-19T11:35:00Z,27.1690,-82.9260,63.23,1111122 
COMPS,ioos:station:USF.COMPS:C10:1,2013-12-19T12:05:00Z,27.1690,-82.9260,64.47,1111122 
COMPS,ioos:station:USF.COMPS:C10:1,2013-12-19T12:35:00Z,27.1690,-82.9260,62.39,1111122 
COMPS,ioos:station:USF.COMPS:C10:1,2013-12-19T13:05:00Z,27.1690,-82.9260,67.46,1111122 
COMPS,ioos:station:USF.COMPS:C10:1,2013-12-19T13:35:00Z,27.1690,-82.9260,64.53,1111122 
COMPS,ioos:station:USF.COMPS:C10:1,2013-12-19T14:05:00Z,27.1690,-82.9260,68.68,1111122 
COMPS,ioos:station:USF.COMPS:C10:1,2013-12-19T14:35:00Z,27.1690,-82.9260,74.76,1111122 
COMPS,ioos:station:USF.COMPS:C10:1,2013-12-19T15:05:00Z,27.1690,-82.9260,76.59,1111122 
COMPS,ioos:station:USF.COMPS:C10:1,2013-12-19T15:35:00Z,27.1690,-82.9260,76.17,1111122 
COMPS,ioos:station:USF.COMPS:C10:1,2013-12-19T16:05:00Z,27.1690,-82.9260,74.62,1111122 
COMPS,ioos:station:USF.COMPS:C10:1,2013-12-19T16:35:00Z,27.1690,-82.9260,73.34,1111122 
COMPS,ioos:station:USF.COMPS:C10:1,2013-12-19T17:05:00Z,27.1690,-82.9260,72.79,1111122 
COMPS,ioos:station:USF.COMPS:C10:1,2013-12-19T17:35:00Z,27.1690,-82.9260,71.3,1111122 
COMPS,ioos:station:USF.COMPS:C10:1,2013-12-19T18:05:00Z,27.1690,-82.9260,71.15,1111122 
COMPS,ioos:station:USF.COMPS:C10:1,2013-12-19T18:35:00Z,27.1690,-82.9260,69.0,1111122 
COMPS,ioos:station:USF.COMPS:C10:1,2013-12-19T19:05:00Z,27.1690,-82.9260,67.21,1111122 
COMPS,ioos:station:USF.COMPS:C10:1,2013-12-19T19:35:00Z,27.1690,-82.9260,66.6,1111122 
COMPS,ioos:station:USF.COMPS:C10:1,2013-12-19T20:05:00Z,27.1690,-82.9260,66.74,1111122 
COMPS,ioos:station:USF.COMPS:C10:1,2013-12-19T20:35:00Z,27.1690,-82.9260,65.41,1111122 
COMPS,ioos:station:USF.COMPS:C10:1,2013-12-19T21:05:00Z,27.1690,-82.9260,64.4,1111122 
COMPS,ioos:station:USF.COMPS:C10:1,2013-12-19T21:35:00Z,27.1690,-82.9260,63.68,1111122 
COMPS,ioos:station:USF.COMPS:C10:1,2013-12-19T22:05:00Z,27.1690,-82.9260,67.15,1111122 
COMPS,ioos:station:USF.COMPS:C10:1,2013-12-19T22:35:00Z,27.1690,-82.9260,71.46,1111122 
COMPS,ioos:station:USF.COMPS:C10:1,2013-12-19T23:05:00Z,27.1690,-82.9260,75.46,1111122 
COMPS,ioos:station:USF.COMPS:C10:1,2013-12-19T23:35:00Z,27.1690,-82.9260,72.68,1111122 
COMPS,ioos:station:USF.COMPS:C10:1,2013-12-20T00:05:00Z,27.1690,-82.9260,70.2,1111122 
COMPS,ioos:station:USF.COMPS:C10:1,2013-12-20T00:35:00Z,27.1690,-82.9260,69.21,1111122 
COMPS,ioos:station:USF.COMPS:C10:1,2013-12-20T01:05:00Z,27.1690,-82.9260,72.05,1111122 
COMPS,ioos:station:USF.COMPS:C10:1,2013-12-20T01:35:00Z,27.1690,-82.9260,74.93,1111122 
COMPS,ioos:station:USF.COMPS:C10:1,2013-12-20T02:05:00Z,27.1690,-82.9260,73.62,1111122 
COMPS,ioos:station:USF.COMPS:C10:1,2013-12-20T02:35:00Z,27.1690,-82.9260,74.6,1111122 
COMPS,ioos:station:USF.COMPS:C10:1,2013-12-20T03:05:00Z,27.1690,-82.9260,69.67,1111122 
COMPS,ioos:station:USF.COMPS:C10:1,2013-12-20T03:35:00Z,27.1690,-82.9260,71.2,1111122 
COMPS,ioos:station:USF.COMPS:C10:1,2013-12-20T04:05:00Z,27.1690,-82.9260,72.18,1111122 
COMPS,ioos:station:USF.COMPS:C10:1,2013-12-20T04:35:00Z,27.1690,-82.9260,72.32,1111122 
COMPS,ioos:station:USF.COMPS:C10:1,2013-12-20T05:05:00Z,27.1690,-82.9260,72.88,1111122 
COMPS,ioos:station:USF.COMPS:C10:1,2013-12-20T05:35:00Z,27.1690,-82.9260,74.17,1111122 
COMPS,ioos:station:USF.COMPS:C10:1,2013-12-20T06:05:00Z,27.1690,-82.9260,74.81,1111122 
COMPS,ioos:station:USF.COMPS:C10:1,2013-12-20T06:35:00Z,27.1690,-82.9260,74.25,1111122 
COMPS,ioos:station:USF.COMPS:C10:1,2013-12-20T07:05:00Z,27.1690,-82.9260,75.99,1111122 
COMPS,ioos:station:USF.COMPS:C10:1,2013-12-20T07:35:00Z,27.1690,-82.9260,76.43,1111122 
COMPS,ioos:station:USF.COMPS:C10:1,2013-12-20T08:05:00Z,27.1690,-82.9260,76.91,1111122 
COMPS,ioos:station:USF.COMPS:C10:1,2013-12-20T08:35:00Z,27.1690,-82.9260,76.0,1111122 
COMPS,ioos:station:USF.COMPS:C10:1,2013-12-20T09:05:00Z,27.1690,-82.9260,76.49,1111122 
COMPS,ioos:station:USF.COMPS:C10:1,2013-12-20T09:35:00Z,27.1690,-82.9260,77.26,1111122 
COMPS,ioos:station:USF.COMPS:C10:1,2013-12-20T10:05:00Z,27.1690,-82.9260,77.39,1111122 
COMPS,ioos:station:USF.COMPS:C10:1,2013-12-20T10:35:00Z,27.1690,-82.9260,77.4,1111122 
COMPS,ioos:station:USF.COMPS:C10:1,2013-12-20T11:05:00Z,27.1690,-82.9260,78.02,1111122 
COMPS,ioos:station:USF.COMPS:C10:1,2013-12-20T11:35:00Z,27.1690,-82.9260,79.22,1111122 
COMPS,ioos:station:USF.COMPS:C10:1,2013-12-20T12:05:00Z,27.1690,-82.9260,80.05,1111122 
COMPS,ioos:station:USF.COMPS:C10:1,2013-12-20T12:35:00Z,27.1690,-82.9260,80.04,1111122 
COMPS,ioos:station:USF.COMPS:C10:1,2013-12-20T13:05:00Z,27.1690,-82.9260,79.38,1111122 
COMPS,ioos:station:USF.COMPS:C10:1,2013-12-20T13:35:00Z,27.1690,-82.9260,79.52,1111122 
COMPS,ioos:station:USF.COMPS:C10:1,2013-12-20T14:05:00Z,27.1690,-82.9260,80.13,1111122 
COMPS,ioos:station:USF.COMPS:C10:1,2013-12-20T14:35:00Z,27.1690,-82.9260,80.35,1111122 
COMPS,ioos:station:USF.COMPS:C10:1,2013-12-20T15:05:00Z,27.1690,-82.9260,79.65,1111122 
COMPS,ioos:station:USF.COMPS:C10:1,2013-12-20T15:35:00Z,27.1690,-82.9260,78.73,1111122 
COMPS,ioos:station:USF.COMPS:C10:1,2013-12-20T16:05:00Z,27.1690,-82.9260,80.29,1111122 
COMPS,ioos:station:USF.COMPS:C10:1,2013-12-20T16:35:00Z,27.1690,-82.9260,79.41,1111122 
COMPS,ioos:station:USF.COMPS:C10:1,2013-12-20T17:05:00Z,27.1690,-82.9260,80.81,1111122 
COMPS,ioos:station:USF.COMPS:C10:1,2013-12-20T17:35:00Z,27.1690,-82.9260,82.62,1111122 
COMPS,ioos:station:USF.COMPS:C10:1,2013-12-20T18:05:00Z,27.1690,-82.9260,83.38,1111122 
COMPS,ioos:station:USF.COMPS:C10:1,2013-12-20T18:35:00Z,27.1690,-82.9260,81.4,1111122 
COMPS,ioos:station:USF.COMPS:C10:1,2013-12-20T19:05:00Z,27.1690,-82.9260,81.8,1111122 
COMPS,ioos:station:USF.COMPS:C10:1,2013-12-20T19:35:00Z,27.1690,-82.9260,82.48,1111122 
COMPS,ioos:station:USF.COMPS:C10:1,2013-12-20T20:05:00Z,27.1690,-82.9260,84.78,1111122 
COMPS,ioos:station:USF.COMPS:C10:1,2013-12-20T20:35:00Z,27.1690,-82.9260,84.96,1111122 
COMPS,ioos:station:USF.COMPS:C10:1,2013-12-20T21:05:00Z,27.1690,-82.9260,84.27,1111122 
COMPS,ioos:station:USF.COMPS:C10:1,2013-12-20T21:35:00Z,27.1690,-82.9260,82.83,1111122 
COMPS,ioos:station:USF.COMPS:C10:1,2013-12-20T22:05:00Z,27.1690,-82.9260,82.35,1111122 
COMPS,ioos:station:USF.COMPS:C10:1,2013-12-20T22:35:00Z,27.1690,-82.9260,82.84,1111122 
COMPS,ioos:station:USF.COMPS:C10:1,2013-12-20T23:05:00Z,27.1690,-82.9260,84.18,1111122 
COMPS,ioos:station:USF.COMPS:C10:1,2013-12-20T23:35:00Z,27.1690,-82.9260,85.28,1111122 
COMPS,ioos:station:USF.COMPS:C10:1,2013-12-21T00:05:00Z,27.1690,-82.9260,84.07,1111122 
COMPS,ioos:station:USF.COMPS:C10:1,2013-12-21T00:35:00Z,27.1690,-82.9260,84.71,1111122 
COMPS,ioos:station:USF.COMPS:C10:1,2013-12-21T01:05:00Z,27.1690,-82.9260,86.58,1111122 
COMPS,ioos:station:USF.COMPS:C10:1,2013-12-21T01:35:00Z,27.1690,-82.9260,87.23,1111122 
COMPS,ioos:station:USF.COMPS:C10:1,2013-12-21T02:05:00Z,27.1690,-82.9260,87.34,1111122 
COMPS,ioos:station:USF.COMPS:C10:1,2013-12-21T02:35:00Z,27.1690,-82.9260,87.62,1111122 
COMPS,ioos:station:USF.COMPS:C10:1,2013-12-21T03:05:00Z,27.1690,-82.9260,87.17,1111122 
COMPS,ioos:station:USF.COMPS:C10:1,2013-12-21T03:35:00Z,27.1690,-82.9260,85.89,1111122 
COMPS,ioos:station:USF.COMPS:C10:1,2013-12-21T04:05:00Z,27.1690,-82.9260,83.29,1111122 
COMPS,ioos:station:USF.COMPS:C10:1,2013-12-21T04:35:00Z,27.1690,-82.9260,82.53,1111122 
COMPS,ioos:station:USF.COMPS:C10:1,2013-12-21T06:05:00Z,27.1690,-82.9260,85.01,1111122 
COMPS,ioos:station:USF.COMPS:C10:1,2013-12-21T06:35:00Z,27.1690,-82.9260,85.48,1111122 
COMPS,ioos:station:USF.COMPS:C10:1,2013-12-21T07:05:00Z,27.1690,-82.9260,86.78,1111122 
COMPS,ioos:station:USF.COMPS:C10:1,2013-12-21T07:35:00Z,27.1690,-82.9260,85.64,1111122 
COMPS,ioos:station:USF.COMPS:C10:1,2013-12-21T08:05:00Z,27.1690,-82.9260,84.38,1111122 
COMPS,ioos:station:USF.COMPS:C10:1,2013-12-21T08:35:00Z,27.1690,-82.9260,85.65,1111122 
COMPS,ioos:station:USF.COMPS:C10:1,2013-12-21T09:05:00Z,27.1690,-82.9260,86.58,1111122 
COMPS,ioos:station:USF.COMPS:C10:1,2013-12-21T09:35:00Z,27.1690,-82.9260,87.19,1111122 